Retour au catalogue

STARLINK-31628

ActifCommunicationsVLEO
NORAD 59342·PAYLOAD·🇺🇸 United States

Lancé Mar 25, 2024 depuis Cape Canaveral Space Force Station

Loading…

Prochains Passages (prochaines 24 heures)

TLE

FraisSource: CelesTrak SupGP

Époque: Sep 15, 2026, 01:44 UTC

1 59342C 24057Y   26258.07270833 -.00044099  00000+0 -15975-2 0  2588
2 59342  43.0025 197.6788 0001316 272.3446 357.8831 15.27596094    18

Suivez STARLINK-31628 en temps réel avec AllMySat

Download on the App Store